Home > Weather > Gdynia > Past weeks

Flag for Poland Past Weather in Gdynia, Poland — Yesterday and Last 2 Weeks

Now
61 °F

Sunny.


Feels Like: 61 °F
Forecast: 63 / 71 °F
Wind: 6 mph from Southeast

Location: Gdansk-Rebiechowo

Current Time: Aug 28, 2016 at 7:22:55 AM

Latest Report: Aug 28, 2016 at 7:00 AM


Visibility: 10 mi

Pressure: 30.09 "Hg

Humidity: 100%

Dew Point: 61 °F

Location of GdyniaLocation

Past Weather in Gdynia — Graph

°F

Gdynia Temperature Yesterday

Maximum temperature yesterday: 75 °F (at 10:30 AM)
Minimum temperature yesterday: 59 °F (at 11:30 PM)
Average temperature yesterday: 68 °F

High & Low Weather Summary for the Past Weeks

 TemperatureHumidityPressure
High82 °F (Aug 26, 4:00 PM)100% (Aug 15, 3:30 AM)30.33 "Hg (Aug 15, 3:30 AM)
Low50 °F (Aug 16, 5:00 AM)35% (Aug 26, 4:00 PM)29.71 "Hg (Aug 18, 5:00 AM)
Average63 °F79%30.06 "Hg
* Reported Aug 13 6:00 AM — Aug 28 6:00 AM, Gdynia, Weather by CustomWeather, © 2016

Note: Actual official high and low records may vary slightly from our data, if they occured in-between our weather recording intervals... More about our weather records

Advertising

Gdynia Weather History for the Previous 24 Hours

Scroll right to see more
 ConditionsComfort  
Time TempWeatherWind HumidityBarometerVisibility
6:00 AM
Sun, Aug 28
59 °FClear.5 mph100%30.09 "Hg10 mi
5:30 AM59 °FClear.5 mph94%30.09 "Hg10 mi
5:00 AM59 °FPassing clouds.5 mph94%30.09 "HgN/A
4:30 AM57 °FPassing clouds.1 mph100%30.09 "HgN/A
4:00 AM57 °FPassing clouds.1 mph94%30.09 "HgN/A
3:30 AM57 °FClear.No wind94%30.09 "Hg10 mi
3:00 AM57 °FFog.1 mph94%30.12 "HgN/A
2:30 AM57 °FFog.1 mph94%30.12 "HgN/A
2:00 AM57 °FFog.3 mph88%30.12 "HgN/A
1:30 AM57 °FFog.1 mph88%30.12 "HgN/A
1:00 AM57 °FFog.No wind94%30.15 "HgN/A
12:30 AM59 °FFog.1 mph88%30.15 "HgN/A
12:00 AM59 °FFog.1 mph88%30.15 "HgN/A
11:30 PM
Sat, Aug 27
59 °FFog.2 mph88%30.15 "HgN/A
11:00 PM61 °FClear.2 mph83%30.15 "Hg10 mi
10:30 PM63 °FClear.5 mph83%30.15 "Hg10 mi
10:00 PM61 °FClear.3 mph88%30.15 "Hg10 mi
9:30 PM63 °FPassing clouds.5 mph83%30.15 "HgN/A
9:00 PM63 °FPassing clouds.5 mph77%30.15 "HgN/A
8:30 PM64 °FPassing clouds.5 mph78%30.15 "HgN/A
8:00 PM64 °FSunny.6 mph73%30.15 "Hg10 mi
7:30 PM64 °FSunny.7 mph73%30.12 "Hg10 mi
7:00 PM66 °FSunny.7 mph73%30.12 "Hg10 mi
6:30 PM68 °FPassing clouds.6 mph69%30.12 "HgN/A
6:00 PM70 °FPassing clouds.6 mph69%30.15 "HgN/A
5:30 PM68 °FSunny.8 mph78%30.12 "Hg10 mi
5:00 PM70 °FSunny.9 mph78%30.15 "Hg10 mi
4:30 PM72 °FSunny.8 mph73%30.12 "Hg10 mi
4:00 PM70 °FSunny.9 mph78%30.12 "Hg10 mi
3:30 PM72 °FSunny.10 mph73%30.12 "Hg10 mi
3:00 PM72 °FPassing clouds.10 mph78%30.12 "HgN/A
2:30 PM72 °FPassing clouds.9 mph78%30.15 "HgN/A
2:00 PM73 °FPassing clouds.9 mph74%30.15 "HgN/A
1:30 PM73 °FPassing clouds.10 mph74%30.15 "HgN/A
1:00 PM73 °FPassing clouds.9 mph69%30.15 "HgN/A
12:30 PM73 °FSunny.9 mph74%30.12 "Hg10 mi
12:00 PM73 °FSunny.9 mph69%30.12 "Hg10 mi
11:30 AM75 °FSunny.8 mph65%30.12 "Hg10 mi
11:00 AM75 °FPassing clouds.3 mph61%30.12 "HgN/A
10:30 AM75 °FSunny.3 mph65%30.12 "Hg10 mi
10:00 AM72 °FPassing clouds.6 mph69%30.12 "HgN/A
9:30 AM72 °FSunny.8 mph69%30.12 "Hg10 mi
9:00 AM70 °FSunny.10 mph69%30.09 "Hg10 mi
8:30 AM68 °FSunny.7 mph73%30.09 "Hg10 mi
8:00 AM66 °FSunny.8 mph73%30.09 "Hg10 mi
7:30 AM64 °FSunny.6 mph78%30.09 "Hg10 mi
7:00 AM63 °FSunny.5 mph83%30.09 "Hg10 mi
Weather by CustomWeather, © 2016

See weather overviewHow to use our weather pages